THORAD DELTA 1 DEB, 8165

Orbit data source: Space-Track

THORAD DELTA 1 DEB, 8165 is space debris in SSO originally from a launch on Fri, 15 Nov 1974 UTC launched from the Air Force Western Test Range (AFWTR). Debris objects in space refer to the collection of defunct objects orbiting the Earth. Examples of debris include non-operational satellites, rocket bodies, and fragments generated from explosions, collisions, or faulty payload assembly.

Loading next visibility...
Identifier
8165, 1974-089AF
Orbit
SSO
Country
Flag of USUS
Related business
Manufacturer
Unknown
Mission
Spacecraft
Bus & Motor
Unknown
Mass
Unknown
Launch date (UTC)
1974-11-15 (51 years ago)
Launch vehicle
Unknown
Launch site
Air Force Western Test Range (AFWTR)
Object type
Payload
Rocket body
Debris
Shape & HBR
Unknown shape, 0.1 m
Radar Cross Section
Small (<0.1 m²)

Expand to show TLE details & history
Last TLE update: 2 days ago

TLE from 2 days ago
0 THORAD DELTA 1 DEB
1 08165U 74089AF  26091.80672780  .00000051  00000-0  62685-3 0  9990
2 08165 101.7065  37.3539 0018434  29.5624 358.0481 12.50188357343223
Epoch: 2026-04-01T19:21Z
TLE epoch observation values (Epoch: 2026-04-01T19:21:41.281Z)
Latitude
27.01922°
Longitude
-89.26794°
Altitude
1,452.264 km
Speed
7.145 km/s
True Right ascension
02h 05m 16s
True Declination
26° 53' 33"
Sunlit
Object was in daylight at epoch
Visualization orbit readout
Latitude
Unknown
Longitude
Unknown
Altitude
Unknown
Speed
Unknown
Apparent Right ascension
Unknown
Apparent Declination
Unknown
Sunlit
N/A
Visualization observer readout
Local Sidereal Time
05:55:44
Azimuth
Unknown
Elevation
Unknown
Doppler factor
Unknown
Orbital elements
Apogee altitude
1,475.702 km
Perigee altitude
1,446.8 km
Semi-major axis
7,839.388 km
Eccentricity
0.00184
Inclination
101.7065°
RAAN
37.3539°
Arg. of periapsis
29.5624°
True anomaly
358.04089°
Mean anomaly
358.0481°
Eccentric anomaly
358.0445°
Mean motion
3.12694 °/min
Orbital period
115.13 mins
BSTAR
0.00062685
Loading maneuver chart data...
Computing Atmospheric mass density...

Documentation

Showing up to 5 results
|